Date_and_time,latitude,longitude,wind_speed,RelWindDirFrom,WindDirFrom,air_pressure,air_temperature,relative_humidity,Temp,platform_speed_wrt_ground,air_pressure_at_mean_sea_level,platform_orientation
2019-02-25 00:00,50.6304483333333,-96.9807633333333,8.8,14.8,310,997.68,-20.2,54,0.38,0.0,1028.00,347.4
2019-02-25 00:00,50.6304483333333,-96.9807633333333,7.2,7.3,304,997.78,-20.4,53,0.38,0.0,1028.12,0.0
2019-02-25 00:10,50.6304466666667,-96.980765,7.2,12.5,316,997.85,-20.5,54,0.38,0.0,1028.20,0.0
2019-02-25 00:20,50.63044,-96.9807583333333,6.6,10.8,320,998.06,-20.8,56,0.38,0.0,1028.43,0.0
2019-02-25 00:30,50.630445,-96.980765,6.7,9.7,331,998.23,-21.1,57,0.38,0.0,1028.63,0.0
2019-02-25 00:40,50.630445,-96.98077,7.5,10.2,326,998.36,-21.3,59,0.38,0.0,1028.79,0.0
2019-02-25 00:50,50.6304466666667,-96.9807716666667,8.8,11.7,332,998.50,-21.5,61,0.38,0.0,1028.97,0.0
2019-02-25 01:00,50.6304466666667,-96.9807716666667,8.2,12.0,326,998.65,-21.8,62,0.38,0.0,1029.14,305.3
2019-02-25 01:10,50.6304483333333,-96.98077,8.1,11.7,323,998.81,-22.0,64,0.38,0.0,1029.33,305.3
2019-02-25 01:20,50.6304483333333,-96.9807683333333,7.3,10.0,324,998.94,-22.2,65,0.38,0.0,1029.49,305.3
2019-02-25 01:30,50.63045,-96.9807666666667,7.8,12.4,320,998.98,-22.4,66,0.38,0.0,1029.56,305.3
2019-02-25 01:40,50.6304516666667,-96.9807683333333,8.0,11.1,321,999.02,-22.6,67,0.38,0.0,1029.62,305.3
2019-02-25 01:50,50.6304516666667,-96.9807683333333,8.1,12.0,321,999.16,-22.7,67,0.38,0.0,1029.80,305.3
2019-02-25 02:00,50.6304466666667,-96.9807516666667,8.2,12.6,323,999.20,-22.8,66,0.38,0.0,1029.85,90.0
2019-02-25 02:10,50.6304566666667,-96.9807666666667,7.5,10.5,322,999.32,-22.9,64,0.38,0.0,1029.99,90.0
2019-02-25 02:20,50.6304533333333,-96.98077,7.5,11.2,319,999.44,-23.0,63,0.38,0.0,1030.14,90.0
2019-02-25 02:30,50.63045,-96.9807733333333,7.1,11.2,317,999.46,-23.2,63,0.38,0.0,1030.18,90.0
2019-02-25 02:40,50.6304483333333,-96.9807683333333,6.2,9.5,313,999.58,-23.4,63,0.38,0.0,1030.33,90.0
2019-02-25 02:50,50.6304466666667,-96.9807683333333,5.2,7.8,310,999.82,-23.5,63,0.38,0.0,1030.60,90.0
2019-02-25 03:00,50.630445,-96.98077,5.1,9.2,302,999.98,-23.7,64,0.38,0.0,1030.79,360.0
2019-02-25 03:10,50.6304433333333,-96.98077,5.4,7.9,299,999.98,-23.8,63,0.38,0.0,1030.82,360.0
2019-02-25 03:20,50.6304433333333,-96.98077,4.9,7.2,287,1000.13,-24.0,64,0.37,0.0,1031.00,360.0
2019-02-25 03:30,50.6304433333333,-96.98077,4.6,6.7,291,1000.19,-24.2,64,0.37,0.0,1031.07,360.0
2019-02-25 03:40,50.6304466666667,-96.9807716666667,5.0,8.3,284,1000.27,-24.4,65,0.37,0.0,1031.18,360.0
2019-02-25 03:50,50.6304316666667,-96.9807766666667,5.8,8.3,281,1000.41,-24.6,65,0.37,0.0,1031.35,360.0
2019-02-25 04:00,50.6304283333333,-96.980765,5.6,8.1,286,1000.50,-24.7,65,0.37,0.0,1031.45,360.0
2019-02-25 04:10,50.6304316666667,-96.9807683333333,5.1,7.6,282,1000.60,-24.8,66,0.37,0.0,1031.57,360.0
2019-02-25 04:20,50.6304333333333,-96.9807683333333,6.0,8.3,284,1000.75,-25.0,66,0.37,0.0,1031.74,360.0
2019-02-25 04:30,50.6304333333333,-96.9807716666667,4.3,8.0,280,1000.92,-25.1,67,0.37,0.0,1031.93,360.0
2019-02-25 04:40,50.63044,-96.9807933333333,4.0,5.9,284,1001.01,-25.1,67,0.36,0.0,1032.04,360.0
2019-02-25 04:50,50.6304433333333,-96.9807866666667,5.6,9.6,301,1001.03,-25.0,66,0.36,0.0,1032.06,360.0
2019-02-25 05:00,50.630445,-96.980785,7.5,11.3,307,1000.94,-24.7,63,0.36,0.0,1031.96,255.8
2019-02-25 05:10,50.6304433333333,-96.9807833333333,7.7,10.7,305,1000.98,-24.6,61,0.36,0.0,1032.01,255.8
2019-02-25 05:20,50.630465,-96.9807883333333,7.7,10.6,307,1001.10,-24.5,60,0.36,0.0,1032.13,255.8
2019-02-25 05:30,50.630415,-96.9807716666667,8.2,11.2,304,1001.19,-24.6,60,0.36,0.0,1032.26,255.8
2019-02-25 05:40,50.6304583333333,-96.9807933333333,7.2,11.3,300,1001.37,-24.8,60,0.35,0.0,1032.46,255.8
2019-02-25 05:50,50.6304416666667,-96.9807783333333,6.3,9.4,295,1001.52,-25.0,60,0.35,0.0,1032.63,255.8
2019-02-25 06:00,50.6304416666667,-96.9807766666667,6.0,8.7,286,1001.67,-25.2,60,0.35,0.0,1032.80,270.0
2019-02-25 06:10,50.6304583333333,-96.9808483333333,6.2,9.1,290,1001.66,-25.3,60,0.35,0.0,1032.82,270.0
2019-02-25 06:20,50.6304583333333,-96.9807566666667,6.4,9.3,289,1001.73,-25.4,61,0.34,0.0,1032.90,270.0
2019-02-25 06:30,50.6304433333333,-96.9807616666667,6.1,9.4,283,1001.92,-25.6,61,0.34,0.0,1033.11,270.0
2019-02-25 06:40,50.6304383333333,-96.98076,5.5,8.3,272,1002.16,-25.7,61,0.34,0.0,1033.35,270.0
2019-02-25 06:50,50.6304383333333,-96.9807616666667,5.2,8.3,262,1002.34,-25.9,62,0.34,0.0,1033.54,270.0
2019-02-25 07:00,50.63044,-96.9807633333333,4.9,6.6,270,1002.36,-26.0,62,0.34,0.0,1033.56,360.0
2019-02-25 07:10,50.63044,-96.980765,5.6,7.2,258,1002.46,-26.2,62,0.34,0.0,1033.67,360.0
2019-02-25 07:20,50.63044,-96.9807666666667,6.4,8.5,257,1002.52,-26.2,62,0.33,0.0,1033.74,360.0
2019-02-25 07:30,50.630425,-96.980775,6.3,9.1,258,1002.63,-26.3,62,0.33,0.0,1033.87,360.0
2019-02-25 07:40,50.63044,-96.9807633333333,5.9,8.8,255,1002.81,-26.5,62,0.33,0.0,1034.08,360.0
2019-02-25 07:50,50.6304383333333,-96.980765,5.5,7.8,267,1002.86,-26.5,62,0.33,0.0,1034.14,360.0
2019-02-25 08:00,50.6304416666667,-96.98077,4.8,7.7,271,1002.90,-26.7,63,0.33,0.0,1034.21,90.0
2019-02-25 08:10,50.6304533333333,-96.9808083333333,5.2,7.5,268,1002.94,-26.9,63,0.32,0.0,1034.27,90.0
2019-02-25 08:20,50.630445,-96.9807633333333,5.8,8.0,265,1002.91,-27.0,63,0.32,0.0,1034.26,90.0
2019-02-25 08:30,50.6304433333333,-96.980775,5.9,8.9,258,1003.00,-27.1,63,0.32,0.0,1034.36,90.0
2019-02-25 08:40,50.630445,-96.9807766666667,6.0,7.7,245,1003.11,-27.3,63,0.32,0.0,1034.50,90.0
2019-02-25 08:50,50.630435,-96.9807833333333,6.2,8.2,243,1003.05,-27.7,64,0.32,0.0,1034.48,90.0
2019-02-25 09:00,50.6304433333333,-96.9807683333333,6.0,8.3,251,1003.02,-27.8,64,0.32,0.0,1034.46,90.0
2019-02-25 09:10,50.6304533333333,-96.9807566666667,6.7,8.8,257,1003.06,-27.9,65,0.32,0.0,1034.50,90.0
2019-02-25 09:20,50.630455,-96.980765,5.8,8.6,265,1002.99,-27.8,65,0.31,0.0,1034.43,90.0
2019-02-25 09:30,50.6304516666667,-96.9807633333333,5.7,8.1,258,1003.01,-27.9,65,0.31,0.0,1034.47,90.0
2019-02-25 09:40,50.6304533333333,-96.980765,5.6,7.3,247,1003.08,-28.2,65,0.31,0.0,1034.57,90.0
2019-02-25 09:50,50.6304516666667,-96.9807666666667,6.0,7.8,256,1003.06,-28.2,65,0.31,0.0,1034.56,90.0
2019-02-25 10:00,50.63045,-96.9807666666667,6.0,8.1,250,1003.18,-28.3,65,0.30,0.0,1034.70,360.0
2019-02-25 10:10,50.6304483333333,-96.9807666666667,6.2,7.5,247,1003.38,-28.6,66,0.30,0.0,1034.93,360.0
2019-02-25 10:20,50.6304533333333,-96.980765,6.0,7.5,245,1003.44,-28.8,66,0.30,0.0,1035.01,360.0
2019-02-25 10:30,50.6304733333333,-96.98078,6.1,7.8,248,1003.39,-28.8,66,0.30,0.0,1034.98,360.0
2019-02-25 10:40,50.6304516666667,-96.9807683333333,5.7,8.0,251,1003.51,-28.8,66,0.30,0.0,1035.13,360.0
2019-02-25 10:50,50.6304533333333,-96.9807683333333,5.7,7.3,244,1003.53,-29.0,66,0.30,0.0,1035.17,360.0
2019-02-25 11:00,50.6304533333333,-96.98077,6.0,7.4,243,1003.60,-29.2,66,0.30,0.0,1035.26,360.0
2019-02-25 11:10,50.6304516666667,-96.98077,5.8,7.8,254,1003.67,-29.1,67,0.30,0.0,1035.32,360.0
2019-02-25 11:20,50.6304516666667,-96.9807683333333,5.3,7.5,255,1003.65,-28.9,66,0.30,0.0,1035.29,360.0
2019-02-25 11:30,50.6304533333333,-96.98077,5.1,6.7,250,1003.74,-29.0,66,0.30,0.0,1035.41,360.0
2019-02-25 11:40,50.6304533333333,-96.98077,5.2,6.0,243,1003.77,-29.2,66,0.30,0.0,1035.46,360.0
2019-02-25 11:50,50.6304533333333,-96.9807716666667,5.6,7.1,244,1003.87,-29.4,66,0.30,0.0,1035.58,360.0
2019-02-25 12:00,50.6304533333333,-96.98077,5.9,7.5,244,1003.98,-29.5,67,0.30,0.0,1035.72,360.0
2019-02-25 12:10,50.6304533333333,-96.98077,6.0,7.1,240,1004.05,-29.6,66,0.30,0.0,1035.81,360.0
2019-02-25 12:20,50.630435,-96.9807666666667,6.4,8.3,246,1004.11,-29.6,67,0.29,0.0,1035.87,360.0
2019-02-25 12:30,50.630445,-96.9807766666667,6.1,7.6,244,1004.23,-29.6,67,0.29,0.0,1035.99,360.0
2019-02-25 12:40,50.6304583333333,-96.9807716666667,6.2,7.9,240,1004.35,-29.8,67,0.29,0.0,1036.14,360.0
2019-02-25 12:50,50.6304566666667,-96.980775,6.3,7.4,242,1004.46,-29.8,67,0.29,0.0,1036.27,360.0
2019-02-25 13:00,50.6304566666667,-96.9807733333333,6.5,8.2,245,1004.49,-29.6,67,0.29,0.0,1036.28,270.0
2019-02-25 13:10,50.6304616666667,-96.980775,6.0,8.1,248,1004.40,-29.4,67,0.29,0.0,1036.17,270.0
2019-02-25 13:20,50.6304716666667,-96.98076,5.6,7.9,248,1004.35,-29.4,67,0.29,0.0,1036.12,270.0
2019-02-25 13:30,50.6304633333333,-96.9807566666667,5.5,8.0,251,1004.34,-29.4,67,0.29,0.0,1036.12,270.0
2019-02-25 13:40,50.6304616666667,-96.9807616666667,6.2,7.7,245,1004.44,-29.5,66,0.28,0.0,1036.25,270.0
2019-02-25 13:50,50.63046,-96.9807583333333,5.8,8.2,243,1004.60,-29.5,66,0.28,0.0,1036.42,270.0
2019-02-25 14:00,50.6304583333333,-96.9807566666667,5.2,6.6,244,1004.65,-29.4,66,0.28,0.0,1036.47,12.6
2019-02-25 14:10,50.6304566666667,-96.9807583333333,4.8,6.4,238,1004.71,-29.3,65,0.28,0.0,1036.52,12.6
2019-02-25 14:20,50.6304566666667,-96.9807583333333,4.6,6.3,239,1004.74,-29.0,64,0.28,0.0,1036.54,12.6
2019-02-25 14:30,50.6304466666667,-96.98077,5.2,7.3,242,1004.76,-28.8,64,0.27,0.0,1036.55,12.6
2019-02-25 14:40,50.6304566666667,-96.980765,5.5,6.9,233,1004.85,-28.6,63,0.27,0.0,1036.63,12.6
2019-02-25 14:50,50.6304583333333,-96.9807633333333,5.6,7.0,225,1004.88,-28.3,62,0.27,0.0,1036.64,12.6
2019-02-25 15:00,50.630455,-96.9807616666667,5.5,7.2,228,1004.89,-28.0,61,0.27,0.0,1036.61,90.0
2019-02-25 15:10,50.6304566666667,-96.980765,5.4,7.2,226,1004.92,-27.6,60,0.27,0.0,1036.61,90.0
2019-02-25 15:20,50.6304566666667,-96.980765,6.5,9.0,220,1004.91,-27.2,59,0.27,0.0,1036.57,90.0
2019-02-25 15:30,50.6304566666667,-96.9807666666667,7.2,9.0,219,1004.88,-27.0,59,0.26,0.0,1036.54,90.0
2019-02-25 15:40,50.6304583333333,-96.9807683333333,8.8,11.4,218,1004.94,-26.5,58,0.26,0.0,1036.57,90.0
2019-02-25 15:50,50.6304566666667,-96.9807683333333,8.2,11.5,216,1004.95,-25.9,57,0.27,0.0,1036.54,90.0
2019-02-25 16:00,50.6304566666667,-96.9807683333333,7.0,8.9,217,1004.99,-25.3,56,0.28,0.0,1036.52,90.0
2019-02-25 16:10,50.6304566666667,-96.98077,7.5,9.3,218,1004.96,-24.7,55,0.28,0.0,1036.45,90.0
2019-02-25 16:20,50.6304566666667,-96.98077,7.3,9.3,219,1004.85,-24.3,54,0.28,0.0,1036.28,90.0
2019-02-25 16:30,50.6304566666667,-96.98077,6.3,8.5,226,1004.78,-23.4,53,0.27,0.0,1036.14,90.0
2019-02-25 16:40,50.630455,-96.98077,6.5,9.0,227,1004.83,-22.7,51,0.27,0.0,1036.13,90.0
2019-02-25 16:50,50.630455,-96.98077,6.0,9.7,222,1004.88,-22.0,50,0.27,0.0,1036.13,90.0
2019-02-25 17:00,50.630455,-96.98077,7.3,9.8,216,1004.82,-21.5,49,0.27,0.0,1036.00,192.6
2019-02-25 17:10,50.630455,-96.98077,7.1,10.3,212,1004.78,-21.1,48,0.27,0.0,1035.92,192.6
2019-02-25 17:20,50.6304483333333,-96.9807683333333,6.1,8.3,192,1004.70,-21.0,49,0.28,0.0,1035.81,192.6
2019-02-25 17:30,50.63045,-96.980775,5.2,7.7,193,1004.65,-21.0,49,0.29,0.0,1035.72,192.6
2019-02-25 17:40,50.6304516666667,-96.980775,5.7,10.5,212,1004.64,-20.2,47,0.28,0.0,1035.62,192.6
2019-02-25 17:50,50.6304516666667,-96.9807733333333,7.1,10.1,211,1004.59,-19.7,46,0.28,0.0,1035.51,192.6
2019-02-25 18:00,50.6304516666667,-96.9807733333333,7.3,10.8,220,1004.66,-19.2,44,0.28,0.0,1035.51,270.0
2019-02-25 18:10,50.6304516666667,-96.980775,9.4,12.5,222,1004.58,-18.9,43,0.28,0.0,1035.38,270.0
2019-02-25 18:20,50.63045,-96.9807733333333,10.3,14.3,223,1004.43,-18.8,42,0.28,0.0,1035.16,270.0
2019-02-25 18:30,50.6304583333333,-96.9807683333333,9.5,13.2,220,1004.28,-18.6,42,0.28,0.0,1034.96,270.0
2019-02-25 18:40,50.6304533333333,-96.9807683333333,9.3,12.3,217,1004.20,-18.3,42,0.28,0.0,1034.81,270.0
2019-02-25 18:50,50.63045,-96.980765,9.5,13.8,216,1004.11,-18.0,42,0.28,0.0,1034.67,270.0
2019-02-25 19:00,50.6304516666667,-96.980765,9.2,12.8,207,1003.98,-18.1,44,0.28,0.0,1034.51,90.0
2019-02-25 19:10,50.630435,-96.9807416666667,8.7,11.6,189,1003.87,-18.4,47,0.28,0.0,1034.41,90.0
2019-02-25 19:20,50.6304483333333,-96.9807633333333,9.1,11.9,180,1003.74,-18.9,50,0.29,0.0,1034.31,90.0
2019-02-25 19:30,50.6304433333333,-96.9807633333333,8.0,11.3,195,1003.69,-18.4,49,0.30,0.0,1034.19,90.0
2019-02-25 19:40,50.6304516666667,-96.980755,9.1,12.4,206,1003.66,-17.9,46,0.30,0.0,1034.09,90.0
2019-02-25 19:50,50.6304483333333,-96.980755,10.6,14.4,214,1003.63,-17.6,44,0.29,0.0,1034.02,90.0
2019-02-25 20:00,50.6304483333333,-96.98076,10.2,13.2,217,1003.60,-17.4,43,0.29,0.0,1033.95,131.7
2019-02-25 20:10,50.6304483333333,-96.9807616666667,10.7,15.0,221,1003.64,-17.2,43,0.29,0.0,1033.98,131.7
2019-02-25 20:20,50.630445,-96.98076,11.5,16.1,214,1003.60,-17.3,44,0.29,0.0,1033.92,131.7
2019-02-25 20:30,50.630445,-96.98076,9.7,13.3,223,1003.57,-17.3,44,0.30,0.0,1033.87,131.7
2019-02-25 20:40,50.6304583333333,-96.9807166666667,10.2,13.9,224,1003.53,-17.2,43,0.31,0.0,1033.82,131.7
2019-02-25 20:50,50.630455,-96.9807366666667,9.5,12.6,218,1003.41,-17.1,44,0.31,0.0,1033.69,131.7
2019-02-25 21:00,50.6304466666667,-96.9807516666667,8.1,10.7,223,1003.38,-16.8,44,0.31,0.0,1033.66,113.6
2019-02-25 21:10,50.630445,-96.9807666666667,8.8,13.7,230,1003.33,-16.6,43,0.31,0.0,1033.62,113.6
2019-02-25 21:20,50.630445,-96.9807666666667,9.3,12.2,217,1003.30,-16.5,44,0.31,0.0,1033.56,113.6
2019-02-25 21:30,50.6304433333333,-96.9807716666667,9.4,12.7,219,1003.28,-16.5,44,0.31,0.0,1033.51,113.6
2019-02-25 21:40,50.6304433333333,-96.98077,9.0,13.5,225,1003.28,-16.4,44,0.31,0.0,1033.48,113.6
2019-02-25 21:50,50.6304433333333,-96.9807683333333,9.1,12.3,217,1003.21,-16.5,44,0.31,0.0,1033.39,113.6
2019-02-25 22:00,50.6304433333333,-96.98077,8.4,10.9,215,1003.20,-16.4,44,0.32,0.0,1033.38,360.0
2019-02-25 22:10,50.6304433333333,-96.9807683333333,8.2,11.0,212,1003.18,-16.3,44,0.32,0.0,1033.36,360.0
2019-02-25 22:20,50.6304316666667,-96.9807166666667,7.1,10.2,220,1003.19,-16.0,44,0.32,0.0,1033.34,360.0
2019-02-25 22:30,50.6304466666667,-96.9807516666667,7.5,11.0,219,1003.14,-15.9,44,0.33,0.0,1033.29,360.0
2019-02-25 22:40,50.63045,-96.9807566666667,7.8,10.8,224,1003.08,-15.8,44,0.33,0.0,1033.21,360.0
2019-02-25 22:50,50.63045,-96.98076,7.2,10.1,230,1002.99,-15.8,44,0.34,0.0,1033.10,360.0
2019-02-25 23:00,50.6304483333333,-96.9807633333333,7.3,9.4,230,1002.92,-15.8,44,0.33,0.0,1033.01,270.0
2019-02-25 23:10,50.6304466666667,-96.980765,6.4,9.5,223,1002.89,-15.8,45,0.34,0.0,1032.98,270.0
2019-02-25 23:20,50.6304466666667,-96.9807633333333,6.4,10.1,219,1002.87,-16.0,45,0.33,0.0,1032.97,270.0
2019-02-25 23:30,50.630415,-96.9807466666667,5.4,7.5,216,1002.88,-16.2,47,0.34,0.0,1032.99,270.0
2019-02-25 23:40,50.6304883333333,-96.9807883333333,5.8,8.0,214,1002.92,-16.5,47,0.34,0.0,1033.04,270.0
